AirNav   Duncan Aviation - Near you to keep you flying
 
 1213 users online  

5FL7 Twelve Oaks Airport
Hernando, Florida, USA

GOING TO HERNANDO?


FAA INFORMATION EFFECTIVE 04 NOVEMBER 2021

Location

FAA Identifier: 5FL7
Lat/Long: 28-58-40.9240N 082-21-49.3470W
28-58.682067N 082-21.822450W
28.9780344,-82.3637075
(estimated)
Elevation: 50 ft. / 15.2 m (surveyed)
Variation: 02W (1985)
From city: 4 miles NE of HERNANDO, FL
Time zone: UTC -4 (UTC -5 during Standard Time)
Zip code: 34442

Airport Operations

Airport use: Private use. Permission required prior to landing
Activation date: 07/1978
Control tower: no
ARTCC: JACKSONVILLE CENTER
FSS: SAINT PETERSBURG FLIGHT SERVICE STATION
Attendance: IREG
Wind indicator: yes
Segmented circle: yes
LOCATED AT WIND INDICATOR; WEST SIDE OF APPROACH END OF RY 22.
Lights: SS-SR

Airport Communications

WX AWOS-3 at INF (11 nm S): 119.975 (352-560-6012)
WX AWOS-3 at CGC (13 nm SW): 118.325 (352-563-6600)
WX AWOS-3PT at OCF (14 nm NE): 128.125 (352-237-8525)

Nearby radio navigation aids

VOR radial/distance  VOR name  Freq  Var
OCFr211/14.0OCALA VORTAC113.7000E

Airport Services

Runway Information

Runway 4/22

Dimensions: 2600 x 100 ft. / 792 x 30 m
Surface: turf
Runway edge lights: low intensity
RUNWAY 4  RUNWAY 22
Latitude: 28-58.544000N28-58.860047N
Longitude: 082-22.018000W082-21.688083W
Traffic pattern: leftleft
Displaced threshold: 400 ft.
RWY 04 THR 400 FT FOR LNDG.
no
Obstructions: 50 ft. trees, marked, 600 ft. from runway50 ft. trees, 200 ft. from runway

Airport Ownership and Management from official FAA records

Ownership: Privately-owned
Owner: TWELVE OAKS PROPERTY OWNERS ASSOCN
PO BOX 34
HOLDER, FL 34445
TWELVE OAKS PROPERTY OWNERS ASSOCN
Manager: TWELVE OAKS PROPERTY OWNERS ASSOCN
P.O. BOX 34
HOLDER, FL 34445
Phone 630-747-9143
TREASURER - RICHARD LOW

Airport Operational Statistics

Aircraft based on the field: 34
Single engine airplanes: 33
Ultralights: 1
    
Aircraft operations: avg 27/month
94% local general aviation
6% transient general aviation

Additional Remarks

FREQ - 122.9
FOR CD CTC JACKSONVILLE APCH AT 904-741-0284.
THE OPPOSITE END OF BOTH RWY IS NOT VSB FRM THE DEP END.
PPR TO LND.
THE AER 22 IS SUBJ FLOODING UNDER HVY RAIN CONDS MAKING THE FIRST 600 FT OF RWY 22 UNUSBL FOR TKOFS OR LDGS.

Instrument Procedures

There are no published instrument procedures at 5FL7.

Some nearby airports with instrument procedures:

X35 - Marion County Airport (5 nm N)
KINF - Inverness Airport (11 nm S)
KCGC - Crystal River Airport-Captain Tom Davis Field (13 nm SW)
KOCF - Ocala International Airport-Jim Taylor Field (14 nm NE)
X60 - Williston Municipal Airport (23 nm N)
 
Loc | Ops | Rwys | IFR | FBO | Links
Com | Nav | Svcs | Stats | Notes


 
Area around 5FL7 (Twelve Oaks Airport)
 
Road maps at: MapQuest Bing Google
 
Aerial photo
WARNING: Photo may not be current or correct
Aerial photo of 5FL7 (Twelve Oaks Airport)
Photo taken 10-Aug-2015
looking southwest.

Do you have a better or more recent aerial photo of Twelve Oaks Airport that you would like to share? If so, please send us your photo.

 
Sectional chart

 
Airport distance calculator
Flying to Twelve Oaks Airport? Find the distance to fly.

From to 5FL7

Sunrise and sunset
Times for 28-Nov-2021
 Local
(UTC-5)
 Zulu
(UTC)
Morning civil twilight06:3911:39
Sunrise07:0412:04
Sunset17:3122:31
Evening civil twilight17:5622:56

Current date and time
Zulu (UTC)  29-Nov-2021 00:01:45
Local (UTC-5)  28-Nov-2021 19:01:45
 
METAR
KINF 
11nm S 
282355Z AUTO 00000KT 7SM BKN110 13/09 A3003 RMK AO2
KCGC 
13nm SW 
282355Z AUTO 00000KT 10SM SCT065 SCT110 14/09 A3004 RMK AO2 PNO
KOCF 
14nm NE 
282351Z 00000KT 10SM FEW070 SCT120 14/07 A3003 RMK AO2 SLP169 T01440072 10194 20144 401940039 58001
TAF
KLEE 
30nm E 
281745Z 2818/2918 33006KT P6SM FEW100 BKN120 BKN200 FM282100 30004KT P6SM SCT050 SCT080 OVC100 FM291000 34008KT P6SM FEW030 SCT060
NOTAMs
Click for the latest NOTAMs
NOTAMs are issued by the DoD/FAA and will open in a separate window not controlled by AirNav.

 

 
 

Would you like to see your business listed on this page?

 If your business provides an interesting product or service to pilots, flight crews, aircraft, or users of the Twelve Oaks Airport, you should consider listing it here.  To start the listing process, click on the button below
 
Add a business
 

Other Pages about Twelve Oaks Airport

Update a link
 
Copyright © AirNav, LLC. All rights reserved. Privacy Policy  Contact